Погода в Крестяхе

Россия / Республика Саха (Якутия)     62°15′24″N   116°09′57″E
темп.,
°C
ветер,
м/с
пор.,
м/с
влажн.,
%
обл.,
%
осадки,
мм/ч
давл.,
гПа
погр.,
м
23 июня, ср
ср2300:00+23сз384453 0.0 1004165
03:00+19сз23605 0.0 100545
06:00+20зюз1162100 0.0 100651
09:00+26зсз454131 0.0 1006592
12:00+31сз232811 0.0 10052637
15:00+23ююз235699 0.3 100666
18:00+18в387789 3.3 1006162
21:00+20всв238389 4.3 100790
24 июня, чт
чт2400:00+16в22931 0.1 100717
03:00+15з11944 0.1 100611
06:00+18сз14855 0.0 1006123
09:00+24с365210 0.0 1006729
12:00+28с353995 0.0 10041602
15:00+29с3535100 0.0 10032439
18:00+28ссв3540100 0.0 10021802
21:00+24св225798 0.0 100321
25 июня, пт
пт2500:00+19ссв116890 0.0 100311
03:00+17с117689 0.0 100313
06:00+19ссв13735 0.0 1003101
09:00+25св34455 0.0 1003774
12:00+28ссв33330 0.0 10022461
15:00+29с33262 0.0 10012749
18:00+29ссз322810 0.0 10002644
21:00+24всв244957 0.0 100194
26 июня, сб
сб2600:00+20вюв236550 0.0 100262
03:00+17юв11800 0.0 100211
06:00+19ююв12730 0.0 100273
09:00+25юв23490 0.0 1002645
12:00+29юв23330 0.0 10012516
15:00+27ю323871 0.1 1001622
18:00+21ююз256597 0.8 1002143
21:00+19з278413 1.1 1001146
27 июня, вс
вс2700:00+17зюз259468 0.0 100293
03:00+15ююз119627 0.0 100211
06:00+17ююз12898 0.0 100384
09:00+25зюз245529 0.0 1002744
12:00+29з343556 0.1 10022583
15:00+30з4428100 0.1 10012817
18:00+29з663198 0.0 10022403
21:00+22зсз5862100 0.0 10061127